Year,Month,Day,Hour,Minute,Value (Times are PST for temperature in C)
2013,02,17,09,24,5.30
2013,02,17,09,25,5.30
2013,02,17,09,26,5.30
2013,02,17,09,27,5.30
2013,02,17,09,28,5.30
2013,02,17,09,29,5.30
2013,02,17,09,30,5.30
2013,02,17,09,31,5.30
2013,02,17,09,32,5.30
2013,02,17,09,33,5.30
2013,02,17,09,34,5.30
2013,02,17,10,07,6.10
2013,02,17,10,08,6.10
2013,02,17,10,09,6.10
2013,02,17,10,10,6.10
2013,02,17,10,11,6.20
2013,02,17,10,12,6.20
2013,02,17,10,13,6.20
2013,02,17,10,14,6.20
2013,02,17,10,15,6.20
2013,02,17,10,16,6.20
2013,02,17,10,17,6.20
2013,02,17,10,18,6.20
2013,02,17,10,19,6.20
2013,02,17,10,20,6.20
2013,02,17,10,21,6.30
2013,02,17,10,22,6.30
2013,02,17,10,23,6.40
2013,02,17,10,24,6.40
2013,02,17,10,25,6.40
2013,02,17,10,26,6.40
2013,02,17,10,27,6.40
2013,02,17,10,28,6.50
2013,02,17,10,29,6.50
2013,02,17,10,30,6.50
2013,02,17,10,31,6.40
2013,02,17,10,32,6.50
2013,02,17,10,33,6.50
2013,02,17,10,34,6.50
2013,02,17,10,35,6.50
2013,02,17,10,36,6.60
2013,02,17,10,37,6.60
2013,02,17,10,38,6.60
2013,02,17,10,39,6.60
2013,02,17,10,40,6.60
2013,02,17,10,41,6.60
2013,02,17,10,42,6.60
2013,02,17,10,43,6.60
2013,02,17,10,44,6.60
2013,02,17,10,45,6.60
2013,02,17,10,46,6.60
2013,02,17,10,47,6.60
2013,02,17,10,48,6.60
2013,02,17,11,21,7.30
2013,02,17,11,22,7.40
2013,02,17,11,23,7.40
2013,02,17,11,24,7.40
2013,02,17,11,25,7.50
2013,02,17,11,26,7.40
2013,02,17,11,27,7.50
2013,02,17,11,28,7.50
2013,02,17,11,29,7.50
2013,02,17,11,30,7.50
2013,02,17,11,31,7.60
2013,02,17,11,32,7.60
2013,02,17,11,33,7.60
2013,02,17,11,34,7.60
2013,02,17,11,35,7.60
2013,02,17,11,36,7.70
2013,02,17,11,37,7.70
2013,02,17,11,38,7.70
2013,02,17,11,39,7.80
2013,02,17,11,40,7.90
2013,02,17,11,41,7.90
2013,02,17,11,42,8.00
2013,02,17,11,43,8.10
2013,02,17,11,44,8.20
2013,02,17,11,45,8.20
2013,02,17,11,46,8.30
2013,02,17,11,47,8.30
2013,02,17,11,48,8.30
2013,02,17,11,49,8.30
2013,02,17,11,50,8.30
2013,02,17,11,51,8.20
2013,02,17,11,52,8.30
2013,02,17,11,53,8.30
2013,02,17,11,54,8.40
2013,02,17,11,55,8.40
2013,02,17,11,56,8.50
2013,02,17,11,57,8.50
2013,02,17,11,58,8.60
2013,02,17,11,59,8.60
2013,02,17,12,00,8.60
2013,02,17,12,01,8.70
2013,02,17,12,02,8.70
2013,02,17,12,03,8.70
2013,02,17,12,04,8.70
2013,02,17,12,05,8.60
2013,02,17,12,06,8.50
2013,02,17,12,07,8.50
2013,02,17,12,08,8.40
2013,02,17,12,09,8.40
2013,02,17,12,10,8.30
2013,02,17,12,11,8.40
2013,02,17,12,12,8.40
2013,02,17,12,13,8.40
2013,02,17,12,14,8.30
2013,02,17,12,15,8.20
2013,02,17,12,16,8.20
2013,02,17,12,17,8.10
2013,02,17,12,18,8.20
2013,02,17,12,19,8.20
2013,02,17,12,20,8.20
2013,02,17,12,21,8.20
2013,02,17,12,22,8.20
2013,02,17,12,23,8.20
2013,02,17,12,24,8.20
2013,02,17,12,25,8.10
2013,02,17,12,26,8.10
2013,02,17,12,27,8.00
2013,02,17,12,28,7.90
2013,02,17,12,29,7.90
2013,02,17,12,30,7.90
2013,02,17,12,31,7.90
2013,02,17,12,32,7.90
2013,02,17,12,33,7.90
2013,02,17,12,34,7.90
2013,02,17,12,35,7.90
2013,02,17,12,36,7.90
2013,02,17,12,37,7.90
2013,02,17,12,38,7.90
2013,02,17,12,39,7.90
2013,02,17,12,40,7.90
2013,02,17,12,41,7.90
2013,02,17,12,42,7.90
2013,02,17,12,43,7.90
2013,02,17,12,44,8.00
2013,02,17,12,45,8.00
2013,02,17,12,46,7.90
2013,02,17,12,47,7.80
2013,02,17,12,48,7.80
2013,02,17,12,49,7.80
2013,02,17,12,50,7.80
2013,02,17,12,51,7.80
2013,02,17,12,52,7.80
2013,02,17,12,53,7.80
2013,02,17,12,54,7.80
2013,02,17,12,55,7.80
2013,02,17,12,56,7.80
2013,02,17,12,57,7.80
2013,02,17,12,58,7.70
2013,02,17,12,59,7.70
2013,02,17,13,00,7.70
2013,02,17,13,01,7.70
2013,02,17,13,02,7.70
2013,02,17,13,03,7.70
2013,02,17,13,04,7.70
2013,02,17,13,05,7.70
2013,02,17,13,06,7.70
2013,02,17,13,07,7.70
2013,02,17,13,08,7.70
2013,02,17,13,09,7.70
2013,02,17,13,10,7.70
2013,02,17,14,18,7.30
2013,02,17,14,19,7.30
2013,02,17,14,20,7.30
2013,02,17,14,21,7.30
2013,02,17,14,22,7.30
2013,02,17,14,23,7.30
2013,02,17,14,24,7.30
2013,02,17,14,25,7.30
2013,02,17,14,26,7.30
2013,02,17,14,27,7.30
2013,02,17,14,28,7.30
